Date,TemperatureHighF,TemperatureAvgF,TemperatureLowF,DewpointHighF,DewpointAvgF,DewpointLowF,HumidityHigh,HumidityAvg,HumidityLow,PressureMaxIn,PressureMinIn,WindSpeedMaxMPH,WindSpeedAvgMPH,GustSpeedMaxMPH,PrecipitationSumIn
2013-3-1,43,38,32,36,31,28,97,77,63,29.69,29.54,10,2,0,0.01
2013-3-2,43,38,33,31,28,27,78,69,59,29.69,29.63,7,1,0,0.00
2013-3-3,42,36,32,33,29,26,93,77,64,29.65,29.57,8,2,0,0.00
2013-3-4,41,35,28,28,25,20,78,68,53,29.76,29.60,13,4,0,0.00
2013-3-5,46,37,31,32,28,24,91,70,53,30.07,29.76,10,2,0,0.00
2013-3-6,40,36,34,36,34,31,97,90,73,30.11,30.05,19,5,0,1.44
2013-3-7,34,32,31,32,31,29,97,94,89,30.07,30.00,18,6,0,0.06
2013-3-8,35,32,29,34,31,27,99,96,74,30.16,29.95,14,3,0,0.73
2013-3-9,52,36,28,38,31,25,98,83,35,30.36,30.16,13,2,0,0.26
2013-3-10,47,36,24,33,30,23,97,80,56,30.42,30.30,8,2,0,0.01
2013-3-11,55,43,36,41,37,32,95,80,52,30.34,30.15,10,4,0,0.00
2013-3-12,56,50,42,53,48,40,98,94,83,30.16,29.72,18,5,0,0.39
2013-3-13,53,44,36,51,31,20,97,63,32,29.79,29.71,13,3,0,0.00
2013-3-14,36,32,23,25,16,8,68,52,40,29.85,29.72,12,4,0,0.00
2013-3-15,42,31,21,29,16,7,78,54,27,29.89,29.65,17,5,0,0.00
2013-3-16,40,34,28,28,16,8,78,50,29,29.89,29.69,8,2,0,0.00
2013-3-17,39,31,23,19,12,3,79,47,23,30.32,29.88,14,3,0,0.00
2013-3-18,40,29,18,28,8,2,92,44,23,30.47,30.24,8,2,0,0.00
2013-3-19,35,32,29,35,32,27,98,97,91,30.23,29.63,16,4,0,0.34
2013-3-20,39,32,26,28,22,19,95,70,45,29.82,29.71,19,4,0,0.38
2013-3-21,39,30,22,29,24,18,95,78,45,29.83,29.62,8,1,0,0.74
2013-3-22,41,34,28,27,20,17,88,58,39,29.76,29.62,19,3,0,0.05
2013-3-23,44,36,30,25,21,18,76,55,37,29.81,29.66,15,5,0,0.00
2013-3-24,49,39,33,27,24,20,76,56,39,29.83,29.73,10,2,0,0.00
2013-3-25,43,37,30,33,30,26,87,76,66,29.77,29.52,21,3,0,0.00
2013-3-26,50,41,36,31,26,20,78,57,32,29.79,29.55,9,2,0,0.00
2013-3-27,53,43,31,32,25,21,75,51,34,29.88,29.75,9,2,0,0.00
2013-3-28,49,43,35,36,34,30,93,71,47,30.03,29.88,9,2,0,0.00
2013-3-29,58,46,34,36,32,28,90,61,33,30.06,29.97,11,2,0,0.00
2013-3-30,57,47,36,34,25,15,75,48,19,30.11,30.01,11,2,0,0.00
2013-3-31,60,45,29,42,29,21,93,60,23,30.12,29.74,19,4,0,0.05